Other Public Products
Issued by NWS Grand Forks, ND

Home | Current Version | Previous Version | Text Only | Print | Product List | Glossary On
Versions: 1 2 3 4 5 6 7 8 9 10 11 12 13 14 15 16 17 18 19 20 21 22 23 24 25 26 27 28 29 30 31 32 33 34 35 36 37 38 39 40 41 42 43 44 45 46 47 48 49 50
000
FPUS83 KFGF 280531
OPUFGF
PRAIRIE TO PINES WEATHER ROUNDUP
NATIONAL WEATHER SERVICE EASTERN NORTH DAKOTA/GRAND FORKS ND
1200 AM CDT THU AUG 28 2014

 **SATELLITE DATA USED TO AUGMENT SKY COVER AT AUTOMATED STATIONS**
 *****  WEATHER ACROSS EASTERN NORTH DAKOTA  *****

CITY           SKY/WX    TMP DP  RH WIND       PRES   REMARKS
GRAND FORKS    CLEAR     61  57  87 S7        30.05F
GRAND FORKS AF CLEAR     60  60  99 S8        30.05F
GRAND CITY NWS   N/A     63 N/A N/A S6          N/A
BUXTON           N/A     61  60  98 SE6         N/A
DEVILS LAKE    CLEAR     64  55  72 S9        30.02S
FARGO          CLOUDY    66  59  78 SE9       30.06F
WAHPETON ARPT  PTCLDY    63  59  88 SE6       30.06F
$$

 *****  WEATHER ACROSS CENTRAL AND WESTERN NORTH DAKOTA  *****

CITY           SKY/WX    TMP DP  RH WIND       PRES   REMARKS
JAMESTOWN      CLOUDY    66  60  81 SE9       30.04F
BISMARCK       CLOUDY    65  61  87 E3        30.03F
MINOT          CLEAR     62  58  86 SE6       29.97F
MINOT AFB      CLEAR     60  60  99 S8        29.96F
GARRISON         N/A     62  61  96 S5        30.00F
WILLISTON      MOCLDY    68  55  63 SW5       29.94S
DICKINSON      CLEAR     61  59  93 S10       30.00F
HETTINGER      FOG       58  57  97 CALM      30.05F VSB 1/4
$$

 *****  OTHER OBSERVATIONS NORTHEAST NORTH DAKOTA  *****

CITY           SKY/WX    TMP DP  RH WIND       PRES   REMARKS
WALHALLA         N/A     63  63 100 S8        30.02F
LANGDON        FAIR      59  57  94 S10       30.03F
CAVALIER       FAIR      59  55  88 S6        30.03F
GRAFTON        FAIR      55  55 100 S6        30.04F
CANDO          FAIR      61  59  94 S8        30.02F
FORT TOTTEN    NOT AVBL
ROLLA          FAIR      57  57 100 S9        30.01F
RUGBY          FAIR      61  59  94 S9        30.00F
 ***** THE ABOVE OBSERVATIONS ARE NON NWS ARE NOT QUALITY
        CONTROLLED AND MAY MIS-REPORT RAIN FOR SNOW...
$$

 *****  OTHER OBSERVATIONS SOUTHEAST NORTH DAKOTA *****

CITY           SKY/WX    TMP DP  RH WIND       PRES   REMARKS
COOPERSTOWN    NOT AVBL
VALLEY CITY    CLOUDY    64  64 100 SE8       30.05F
OAKES            N/A     64  64 100 E9        30.04F
GWINNER        CLOUDY    66  63  88 CALM      30.06F
SHEYENNE NWR     N/A     65  62  89 E3        29.95S
BUFFALO          N/A     64  59  83 CALM        N/A
WYNDMERE       NOT AVBL
 ***** THE ABOVE OBSERVATIONS ARE NON NWS ARE NOT QUALITY
       CONTROLLED AND MAY MIS-REPORT RAIN FOR SNOW...
$$

  *****  WEATHER ACROSS NORTHERN MINNESOTA  *****

CITY           SKY/WX    TMP DP  RH WIND       PRES   REMARKS
FLAG ISLAND    CLEAR     66  57  72 S13       30.07S
WARROAD        CLEAR     54  48  82 S6        30.09S
ROSEAU         CLEAR     54  48  82 SE5       30.08S
HALLOCK        CLEAR     55  52  88 SE8       30.04F
THF RVR FALLS  CLEAR     55  52  88 SE5       30.08F
HALSTAD          N/A     58  55  92 SE6         N/A
FOSSTON        CLEAR     55  52  88 SE6       30.11S
BAUDETTE       CLEAR     52  51  97 CALM      30.10S
WASKISH        CLEAR     52  50  93 CALM      30.11S
CROOKSTON      CLEAR     57  55  94 SE7       30.08S
$$
  *****  WEATHER ACROSS CENTRAL AND WEST MINNESOTA  *****

CITY           SKY/WX    TMP DP  RH WIND       PRES   REMARKS
BEMIDJI        CLEAR     57  55  93 CALM      30.12S
PARK RAPIDS    CLEAR     58  56  93 CALM      30.13S
WADENA         CLEAR     59  55  88 SE3       30.12F
DETROIT LAKES  CLEAR     63  59  88 SE8       30.11F
MOORHEAD       MOCLDY    64  64 100 SE5       30.07F
FERGUS FALLS   PTCLDY    64  57  77 SE7       30.08F
ELBOW LAKE     FAIR      64  60  87 E8        30.08F
MORRIS MN      MOCLDY    64  61  88 SE8       30.08F
STAPLES        PTCLDY    59  57  94 CALM      30.13F
WHEATON        PTCLDY    61  57  88 SE7       30.08F
$$
  *****  WEATHER ELSEWHERE ACROSS MINNESOTA  *****

CITY           SKY/WX    TMP DP  RH WIND       PRES   REMARKS
DULUTH         PTCLDY    59  53  80 W5        30.14S
INTRNTL FALLS  CLEAR     46  45  96 CALM      30.12R
ELY            CLOUDY    50  48  93 CALM      30.14S
CLOQUET        CLEAR     54  50  87 SW5       30.15S
BRAINERD       CLOUDY    58  57  97 CALM      30.15S
HIBBING        FOG       46  45  96 CALM      30.14S VSB 1/4
ALEXANDRIA     CLEAR     63  58  83 SE8       30.13F
SAINT CLOUD    CLEAR     62  57  83 E5        30.13F
MINNEAPOLIS    PTCLDY    66  58  75 E8        30.14S
$$

  *****  WEATHER ACROSS SOUTH DAKOTA  *****

CITY           SKY/WX    TMP DP  RH WIND       PRES   REMARKS
SIOUX FALLS    CLOUDY    69  65  86 SE12      30.07F
BROOKINGS      NOT AVBL
WATERTOWN      PTCLDY    64  62  93 SE6       30.07F
HURON          MOCLDY    68  64  87 SE7       30.02F
SISSETON         N/A     62  60  93 S3        30.06F
ABERDEEN       PTCLDY    61  61 100 SE6       30.03F
MITCHELL       CLOUDY    69  67  93 SE10      30.04F
PIERRE         LGT RAIN  67  67 100 SE8       30.00F
MOBRIDGE       CLOUDY    66  63  90 E6        30.00S
RAPID CITY     CLOUDY    64  62  93 NW7       30.04F
$$

  *****  SOME WEATHER IN NEARBY STATES *****

CITY           SKY/WX    TMP DP  RH WIND       PRES   REMARKS
GLASGOW MT     CLEAR     65  52  62 SE6       29.91F
GREAT FALLS MT CLEAR     63  47  55 S10       30.01F
CHEYENNE WY    PTCLDY    54  47  77 NW8       30.20S
SCOTTSBLUFF NE CLOUDY    63  62  97 W3        30.09R
OMAHA NE       LGT RAIN  72  68  87 SE6       30.05F
DES MOINES IA  CLOUDY    72  67  84 E6        30.07F
DAVENPORT IA   PTCLDY    64  60  87 NE7       30.12S
CHICAGO IL     PTCLDY    68  59  73 NE7       30.13S
EAU CLAIRE WI  CLEAR     58  56  93 CALM      30.15S
LA CROSSE WI   CLEAR     64  60  87 SE3       30.14S
$$

  *****  SOME NATIONAL WEATHER *****

CITY           SKY/WX    TMP DP  RH WIND       PRES   REMARKS
LA GUARDIA NY  MOCLDY    77  67  71 N5        29.86S
RALEIGH NC     PTCLDY    66  61  84 CALM      29.99S
ATLANTA GA     PTCLDY    75  63  66 CALM      30.06S
NEW ORLEANS LA MOCLDY    81  75  82 SE6       29.99S
OKLAHOMA CITY  MOCLDY    79  65  62 SE9       30.01F
ALBUQUERQUE NM PTCLDY    71  52  50 SE3       30.22F
SALT LAKE CITY PTCLDY    66  53  63 SE10      30.21S
LOS ANGELES CA CLEAR     73  58  59 W13       30.01R
BOISE ID       CLEAR     74  38  27 SE10      30.05S
SEATTLE WA     PTCLDY    66  57  72 W3        30.04R
$$

*** WEATHER ACROSS MANITOBA...SASKATCHEWAN AND ONTARIO ***
                ***ONTARIO***

CITY           SKY/WX    TMP DP  RH WIND       PRES   REMARKS
GERALDTON      FOG      N/A N/A N/A SW2         N/A  VSB 3/4
THUNDER BAY    PTCLDY    46  46 100 W3        30.15R
SIOUX LOOKOUT  CLEAR     50  48  93 S5        30.10F
TORONTO        CLEAR     57  50  77 W7        30.07F
BIG TROUT LK     N/A     55  50  82 S12       29.97
PICKLE LAKE    NOT AVBL
DRYDEN         CLEAR     57  52  82 S8        30.10F
KENORA         CLEAR     59  50  72 S6        30.09S
$$
                *** MANITOBA***

CITY           SKY/WX    TMP DP  RH WIND       PRES   REMARKS
BRANDON        CLEAR     54  52  94 E3        29.97F
DAUPHIN        CLEAR     66  54  63 SW10      29.89F
ISLAND LAKE    MOCLDY    64  54  68 S6        29.85F
PILOT MOUND      N/A     55  54  94 S8          N/A
THE PAS        PTCLDY    63  61  94 SE5       29.76F
THOMPSON       MOCLDY    63  61  94 SW7       29.68S
WINNIPEG       CLEAR     61  52  72 S13       30.02S
LYNN LAKE      PTCLDY    59  57  94 MISG      29.69R
CHURCHILL      TSTM      63  55  77 SW21G31   29.56S
GILLAM         LGT RAIN  64  59  82 S13       29.64F
$$
                ***SASKATCHEWAN***

CITY           SKY/WX    TMP DP  RH WIND       PRES   REMARKS
ESTEVAN        PTCLDY    64  57  77 S7        29.92F
KINDERSLEY     PTCLDY    63  55  77 E10       29.86F
LLOYDMINSTER   PTCLDY    55  52  88 W6        29.87R
PRINCE ALBERT  MOCLDY    54  54 100 N2        29.81F
REGINA         MOCLDY    63  57  82 SE8       29.85S



USA.gov is the U.S. government's official web portal to all federal, state and local government web resources and services.